Weather History for Eastover, SC

Change the Weather History Date:

Tuesday, January 15, 2013

  Actual Average Record
Temperature  
Mean Temperature 66 °F -  
Max Temperature 77 °F 53 °F 77 °F (2013)
Min Temperature 56 °F 33 °F 21 °F (2011)
Cooling Degree Days 2    
Growing Degree Days 16 (Base 50)    
Moisture  
Dew Point 58 °F    
Average Humidity 75    
Maximum Humidity 100    
Minimum Humidity 50    
Precipitation  
Precipitation 0.00 in - - ()
Sea Level Pressure  
Sea Level Pressure 30.09 in    
Wind  
Wind Speed 6 mph (South)    
Max Wind Speed 14 mph    
Max Gust Speed 17 mph    
Visibility 10 miles    
Events Fog    
Averages and records for this station are not official NWS values.
T = Trace of Precipitation, MM = Missing Value Source: NWS Daily Summary

Daily Weather History Graph

Daily Weather History Graph

Search for Another Location

Airport:

Trip Planner

Search our weather history database for the weather conditions in past years. The results will help you decide how hot, cold, wet, or windy it might be!

Date:

Astronomy

Jan. 15, 2013 Rise Set
Actual Time 7:28 AM EST 5:37 PM EST
Civil Twilight 7:01 AM EST 6:04 PM EST
Nautical Twilight 6:30 AM EST 6:35 PM EST
Astronomical Twilight 6:00 AM EST 7:05 PM EST
Moon 9:47 AM EST (1/15) 10:09 PM EST (1/15)
Length of Visible Light 11h 03m
Length of Day
10h 09m
Waxing Crescent, 19% of the Moon is Illuminated
Jan 15
Waxing Crescent
Jan 18
First Quarter
Jan 26
Full
Feb 3
Last Quarter
Feb 10
New

Hourly Weather History & Observations

Time (EST) Temp. Dew Point Humidity Pressure Visibility Wind Dir Wind Speed Gust Speed Precip Events Conditions
12:55 AM 63.7 °F 59.5 °F 86% 30.14 in 10.0 mi SSE 6.9 mph - N/A   Clear
1:55 AM 63.3 °F 58.8 °F 85% 30.13 in 10.0 mi SSE 4.6 mph - N/A   Clear
2:55 AM 63.7 °F 59.5 °F 86% 30.14 in 10.0 mi South 4.6 mph - N/A   Overcast
3:55 AM 64.0 °F 59.5 °F 85% 30.12 in 10.0 mi South 5.8 mph - N/A   Overcast
4:55 AM 63.3 °F 59.0 °F 86% 30.10 in 10.0 mi South 3.5 mph - N/A   Overcast
5:55 AM 60.1 °F 58.8 °F 96% 30.10 in 10.0 mi Calm Calm - N/A   Clear
6:55 AM 58.5 °F 58.1 °F 99% 30.11 in 10.0 mi SSE 3.5 mph - N/A Fog Shallow Fog
7:55 AM 56.8 °F 56.8 °F 100% 30.13 in 5.0 mi Calm Calm - N/A   Overcast
8:55 AM 60.1 °F 60.1 °F 100% 30.16 in 6.0 mi Calm Calm - N/A   Overcast
9:55 AM 64.4 °F 59.4 °F 84% 30.16 in 10.0 mi SSW 3.5 mph - N/A   Mostly Cloudy
10:55 AM 71.6 °F 58.8 °F 64% 30.15 in 10.0 mi SSW 8.1 mph - N/A   Mostly Cloudy
11:55 AM 74.8 °F 57.7 °F 55% 30.11 in 10.0 mi South 8.1 mph - N/A   Mostly Cloudy
12:55 PM 75.6 °F 57.9 °F 54% 30.08 in 10.0 mi SSW 11.5 mph - N/A   Mostly Cloudy
1:55 PM 77.0 °F 57.7 °F 51% 30.05 in 10.0 mi SW 13.8 mph 17.3 mph N/A   Mostly Cloudy
2:55 PM 76.3 °F 57.0 °F 51% 30.05 in 10.0 mi South 9.2 mph - N/A   Mostly Cloudy
3:55 PM 76.1 °F 55.9 °F 50% 30.04 in 10.0 mi South 11.5 mph - N/A   Mostly Cloudy
4:55 PM 74.5 °F 56.1 °F 53% 30.06 in 10.0 mi South 6.9 mph - N/A   Mostly Cloudy
5:55 PM 70.5 °F 56.5 °F 61% 30.06 in 10.0 mi SSE 5.8 mph - N/A   Mostly Cloudy
6:55 PM 68.5 °F 56.8 °F 66% 30.07 in 10.0 mi SE 5.8 mph - N/A   Mostly Cloudy
7:55 PM 66.9 °F 56.8 °F 70% 30.06 in 10.0 mi SE 4.6 mph - N/A   Overcast
8:55 PM 66.6 °F 59.0 °F 77% 30.05 in 10.0 mi SSE 6.9 mph - N/A   Mostly Cloudy
9:55 PM 65.3 °F 59.5 °F 82% 30.03 in 10.0 mi SSE 9.2 mph - N/A   Mostly Cloudy
10:55 PM 64.6 °F 58.8 °F 82% 30.02 in 10.0 mi SE 4.6 mph - N/A   Mostly Cloudy
11:55 PM 64.8 °F 59.0 °F 82% 30.02 in 10.0 mi SSE 8.1 mph - N/A   Partly Cloudy